Time,TemperatureF,DewpointF,PressureIn,WindDirection,WindDirectionDegrees,WindSpeedMPH,WindSpeedGustMPH,Humidity,HourlyPrecipIn,Conditions,Clouds,dailyrainin,SoftwareType,DateUTC
2013-08-05 00:02:00,67.6,63.6,29.97,East,81,0.0,0.0,87,0.00,,---,0.00,VWS V14.01,2013-08-05 05:02:00,
2013-08-05 00:07:00,67.5,63.5,29.97,East,81,0.0,0.0,87,0.00,,---,0.00,VWS V14.01,2013-08-05 05:07:00,
2013-08-05 00:12:00,67.4,63.4,29.97,East,80,0.0,0.0,87,0.00,,---,0.00,VWS V14.01,2013-08-05 05:12:00,
2013-08-05 00:17:00,67.3,63.3,29.96,East,80,0.0,0.0,87,0.00,,---,0.00,VWS V14.01,2013-08-05 05:17:00,
2013-08-05 00:22:00,67.3,63.3,29.96,East,81,0.0,0.0,87,0.00,,---,0.00,VWS V14.01,2013-08-05 05:22:00,
2013-08-05 00:27:00,67.4,63.7,29.96,East,81,0.0,0.0,88,0.00,,---,0.00,VWS V14.01,2013-08-05 05:27:00,
2013-08-05 00:32:00,67.3,63.3,29.95,East,80,0.0,0.0,87,0.00,,---,0.00,VWS V14.01,2013-08-05 05:32:00,
2013-08-05 00:37:00,67.3,63.3,29.95,East,81,0.0,0.0,87,0.00,,---,0.00,VWS V14.01,2013-08-05 05:37:00,
2013-08-05 00:42:00,67.4,63.4,29.95,East,82,0.0,0.0,87,0.00,,---,0.00,VWS V14.01,2013-08-05 05:42:00,
2013-08-05 00:47:00,67.5,63.5,29.95,East,81,0.0,0.0,87,0.00,,---,0.00,VWS V14.01,2013-08-05 05:47:00,
2013-08-05 00:52:00,67.5,63.2,29.95,East,81,0.0,0.0,86,0.00,,---,0.00,VWS V14.01,2013-08-05 05:52:00,
2013-08-05 00:57:00,67.6,63.3,29.95,East,81,0.0,0.0,86,0.00,,---,0.00,VWS V14.01,2013-08-05 05:57:00,
2013-08-05 01:02:00,67.6,62.9,29.95,East,80,0.0,0.0,85,0.00,,---,0.00,VWS V14.01,2013-08-05 06:02:00,
2013-08-05 01:07:00,67.7,63.0,29.95,East,81,0.0,0.0,85,0.00,,---,0.00,VWS V14.01,2013-08-05 06:07:00,
2013-08-05 01:12:00,67.9,63.2,29.95,East,81,0.0,0.0,85,0.00,,---,0.00,VWS V14.01,2013-08-05 06:12:00,
2013-08-05 01:17:00,67.9,63.2,29.96,East,80,0.0,0.0,85,0.00,,---,0.00,VWS V14.01,2013-08-05 06:17:00,
2013-08-05 01:22:00,68.0,63.7,29.96,East,80,0.0,0.0,86,0.00,,---,0.00,VWS V14.01,2013-08-05 06:22:00,
2013-08-05 01:27:00,68.0,64.0,29.96,East,82,0.0,0.0,87,0.00,,---,0.00,VWS V14.01,2013-08-05 06:27:00,
2013-08-05 01:32:00,67.9,63.9,29.94,East,80,0.0,0.0,87,0.00,,---,0.00,VWS V14.01,2013-08-05 06:32:00,
2013-08-05 01:37:00,67.7,63.4,29.94,East,80,0.0,0.0,86,0.00,,---,0.00,VWS V14.01,2013-08-05 06:37:00,
2013-08-05 01:42:00,67.5,63.2,29.94,East,81,0.0,0.0,86,0.00,,---,0.00,VWS V14.01,2013-08-05 06:42:00,
2013-08-05 01:47:00,67.6,62.9,29.93,East,80,0.0,0.0,85,0.00,,---,0.00,VWS V14.01,2013-08-05 06:47:00,
2013-08-05 01:52:00,67.6,62.9,29.93,East,80,0.0,0.0,85,0.00,,---,0.00,VWS V14.01,2013-08-05 06:52:00,
2013-08-05 01:57:00,67.7,63.0,29.93,East,81,0.0,0.0,85,0.00,,---,0.00,VWS V14.01,2013-08-05 06:57:00,
2013-08-05 02:02:00,67.8,63.1,29.93,East,82,0.0,0.0,85,0.00,,---,0.00,VWS V14.01,2013-08-05 07:02:00,
2013-08-05 02:07:00,67.7,63.0,29.93,East,80,0.0,0.0,85,0.00,,---,0.00,VWS V14.01,2013-08-05 07:07:00,
2013-08-05 02:12:00,67.7,63.4,29.93,East,81,0.0,0.0,86,0.00,,---,0.00,VWS V14.01,2013-08-05 07:12:00,
2013-08-05 02:17:00,67.6,62.9,29.93,East,81,0.0,0.0,85,0.00,,---,0.00,VWS V14.01,2013-08-05 07:17:00,
2013-08-05 02:22:00,67.6,63.3,29.93,East,82,0.0,0.0,86,0.00,,---,0.00,VWS V14.01,2013-08-05 07:22:00,
2013-08-05 02:27:00,67.6,62.9,29.93,East,80,0.0,0.0,85,0.00,,---,0.00,VWS V14.01,2013-08-05 07:27:00,
2013-08-05 02:32:00,67.6,63.3,29.93,East,80,0.0,0.0,86,0.00,,---,0.00,VWS V14.01,2013-08-05 07:32:00,
2013-08-05 02:37:00,67.6,63.3,29.93,East,80,0.0,0.0,86,0.00,,---,0.00,VWS V14.01,2013-08-05 07:37:00,
2013-08-05 02:42:00,67.5,62.8,29.93,East,80,0.0,0.0,85,0.00,,---,0.00,VWS V14.01,2013-08-05 07:42:00,
2013-08-05 02:47:00,67.6,63.3,29.93,East,81,0.0,0.0,86,0.00,,---,0.00,VWS V14.01,2013-08-05 07:47:00,
2013-08-05 02:52:00,67.6,63.6,29.93,East,80,0.0,0.0,87,0.00,,---,0.00,VWS V14.01,2013-08-05 07:52:00,
2013-08-05 02:57:00,67.6,63.6,29.93,East,80,0.0,0.0,87,0.00,,---,0.00,VWS V14.01,2013-08-05 07:57:00,
2013-08-05 03:02:00,67.6,63.9,29.94,East,80,0.0,0.0,88,0.00,,---,0.00,VWS V14.01,2013-08-05 08:02:00,
2013-08-05 03:07:00,67.4,63.4,29.94,East,82,0.0,0.0,87,0.00,,---,0.00,VWS V14.01,2013-08-05 08:07:00,
2013-08-05 03:12:00,67.3,63.3,29.94,East,80,0.0,0.0,87,0.00,,---,0.00,VWS V14.01,2013-08-05 08:12:00,
2013-08-05 03:17:00,67.4,63.4,29.93,East,81,0.0,0.0,87,0.00,,---,0.00,VWS V14.01,2013-08-05 08:17:00,
2013-08-05 03:22:00,67.3,63.3,29.93,East,80,0.0,0.0,87,0.00,,---,0.00,VWS V14.01,2013-08-05 08:22:00,
2013-08-05 03:27:00,67.3,63.0,29.93,East,81,0.0,0.0,86,0.00,,---,0.00,VWS V14.01,2013-08-05 08:27:00,
2013-08-05 03:33:00,67.3,63.0,29.93,East,81,0.0,0.0,86,0.00,,---,0.00,VWS V14.01,2013-08-05 08:33:00,
2013-08-05 03:38:00,67.3,63.0,29.93,East,80,0.0,0.0,86,0.00,,---,0.00,VWS V14.01,2013-08-05 08:38:00,
2013-08-05 03:43:00,67.3,63.0,29.93,East,81,0.0,0.0,86,0.00,,---,0.00,VWS V14.01,2013-08-05 08:43:00,
2013-08-05 03:48:00,67.3,63.0,29.93,East,81,0.0,0.0,86,0.00,,---,0.00,VWS V14.01,2013-08-05 08:48:00,
2013-08-05 03:53:00,67.5,63.5,29.93,East,80,0.0,0.0,87,0.00,,---,0.00,VWS V14.01,2013-08-05 08:53:00,
2013-08-05 03:58:00,67.6,63.6,29.93,East,81,0.0,0.0,87,0.00,,---,0.00,VWS V14.01,2013-08-05 08:58:00,
2013-08-05 04:03:00,67.6,63.6,29.93,East,80,0.0,0.0,87,0.00,,---,0.00,VWS V14.01,2013-08-05 09:03:00,
2013-08-05 04:09:00,67.6,63.6,29.93,East,80,0.0,0.0,87,0.00,,---,0.00,VWS V14.01,2013-08-05 09:09:00,
2013-08-05 04:14:00,67.5,63.5,29.93,East,81,0.0,0.0,87,0.00,,---,0.00,VWS V14.01,2013-08-05 09:14:00,
2013-08-05 04:19:00,67.5,63.5,29.94,East,80,0.0,0.0,87,0.00,,---,0.00,VWS V14.01,2013-08-05 09:19:00,
2013-08-05 04:24:00,67.5,63.5,29.94,East,80,0.0,0.0,87,0.00,,---,0.00,VWS V14.01,2013-08-05 09:24:00,
2013-08-05 04:29:00,67.5,63.5,29.94,East,80,0.0,0.0,87,0.00,,---,0.00,VWS V14.01,2013-08-05 09:29:00,
2013-08-05 04:34:00,67.5,63.5,29.93,East,81,0.0,0.0,87,0.00,,---,0.00,VWS V14.01,2013-08-05 09:34:00,
2013-08-05 04:39:00,67.5,63.5,29.93,East,80,0.0,0.0,87,0.00,,---,0.00,VWS V14.01,2013-08-05 09:39:00,
2013-08-05 04:44:00,67.5,63.5,29.93,East,80,0.0,0.0,87,0.00,,---,0.00,VWS V14.01,2013-08-05 09:44:00,
2013-08-05 04:49:00,67.5,63.8,29.93,East,81,0.0,0.0,88,0.00,,---,0.00,VWS V14.01,2013-08-05 09:49:00,
2013-08-05 04:54:00,67.6,64.2,29.93,East,80,0.0,0.0,89,0.00,,---,0.00,VWS V14.01,2013-08-05 09:54:00,
2013-08-05 04:59:00,67.5,64.2,29.93,East,80,0.0,0.0,89,0.00,,---,0.00,VWS V14.01,2013-08-05 09:59:00,
2013-08-05 05:04:00,67.4,64.1,29.92,East,80,0.0,0.0,89,0.00,,---,0.00,VWS V14.01,2013-08-05 10:04:00,
2013-08-05 05:09:00,67.3,64.0,29.92,East,81,0.0,0.0,89,0.00,,---,0.00,VWS V14.01,2013-08-05 10:09:00,
2013-08-05 05:14:00,67.2,64.2,29.92,East,81,0.0,0.0,90,0.00,,---,0.00,VWS V14.01,2013-08-05 10:14:00,
2013-08-05 05:19:00,67.0,63.7,29.92,East,81,0.0,0.0,89,0.00,,---,0.00,VWS V14.01,2013-08-05 10:19:00,
2013-08-05 05:24:00,66.8,63.5,29.92,East,81,0.0,0.0,89,0.00,,---,0.00,VWS V14.01,2013-08-05 10:24:00,
2013-08-05 05:29:00,66.9,63.6,29.92,East,81,0.0,0.0,89,0.00,,---,0.00,VWS V14.01,2013-08-05 10:29:00,
2013-08-05 05:34:00,67.0,64.0,29.93,East,81,0.0,0.0,90,0.00,,---,0.00,VWS V14.01,2013-08-05 10:34:00,
2013-08-05 05:39:00,67.0,63.7,29.93,East,81,0.0,0.0,89,0.00,,---,0.00,VWS V14.01,2013-08-05 10:39:00,
2013-08-05 05:45:00,66.9,63.6,29.93,East,80,0.0,0.0,89,0.00,,---,0.00,VWS V14.01,2013-08-05 10:45:00,
2013-08-05 05:50:00,67.0,63.7,29.93,East,81,0.0,0.0,89,0.00,,---,0.00,VWS V14.01,2013-08-05 10:50:00,
2013-08-05 05:55:00,67.0,63.7,29.93,East,81,0.0,0.0,89,0.00,,---,0.00,VWS V14.01,2013-08-05 10:55:00,
2013-08-05 06:00:00,66.9,63.6,29.93,East,82,0.0,0.0,89,0.00,,---,0.00,VWS V14.01,2013-08-05 11:00:00,
2013-08-05 06:05:00,66.8,63.1,29.93,East,82,0.0,0.0,88,0.00,,---,0.00,VWS V14.01,2013-08-05 11:05:00,
2013-08-05 06:10:00,66.8,63.5,29.93,East,80,0.0,0.0,89,0.00,,---,0.00,VWS V14.01,2013-08-05 11:10:00,
2013-08-05 06:16:00,66.9,63.6,29.93,East,80,0.0,0.0,89,0.00,,---,0.00,VWS V14.01,2013-08-05 11:16:00,
2013-08-05 06:21:00,66.9,63.6,29.93,East,80,0.0,0.0,89,0.00,,---,0.00,VWS V14.01,2013-08-05 11:21:00,
2013-08-05 06:26:00,67.0,63.7,29.93,East,81,0.0,0.0,89,0.00,,---,0.00,VWS V14.01,2013-08-05 11:26:00,
2013-08-05 06:31:00,67.1,63.8,29.93,East,81,0.0,0.0,89,0.00,,---,0.00,VWS V14.01,2013-08-05 11:31:00,
2013-08-05 06:36:00,67.2,63.5,29.93,East,81,0.0,0.0,88,0.00,,---,0.00,VWS V14.01,2013-08-05 11:36:00,
2013-08-05 06:41:00,67.2,63.5,29.93,East,82,0.0,0.0,88,0.00,,---,0.00,VWS V14.01,2013-08-05 11:41:00,
2013-08-05 06:46:00,67.3,63.6,29.93,East,81,0.0,0.0,88,0.00,,---,0.00,VWS V14.01,2013-08-05 11:46:00,
2013-08-05 06:51:00,67.5,63.5,29.93,East,80,0.0,0.0,87,0.00,,---,0.00,VWS V14.01,2013-08-05 11:51:00,
2013-08-05 06:56:00,67.9,63.6,29.93,East,81,0.0,0.0,86,0.00,,---,0.00,VWS V14.01,2013-08-05 11:56:00,
2013-08-05 07:01:00,68.5,63.5,29.94,East,80,0.0,0.0,84,0.00,,---,0.00,VWS V14.01,2013-08-05 12:01:00,
2013-08-05 07:07:00,69.2,63.8,29.94,East,81,0.0,0.0,83,0.00,,---,0.00,VWS V14.01,2013-08-05 12:07:00,
2013-08-05 07:12:00,69.5,63.8,29.94,East,81,0.0,0.0,82,0.00,,---,0.00,VWS V14.01,2013-08-05 12:12:00,
2013-08-05 07:17:00,70.0,63.5,29.94,East,82,0.0,0.0,80,0.00,,---,0.00,VWS V14.01,2013-08-05 12:17:00,
2013-08-05 07:22:00,70.5,64.0,29.94,East,82,0.0,0.0,80,0.00,,---,0.00,VWS V14.01,2013-08-05 12:22:00,
2013-08-05 07:27:00,71.1,64.3,29.94,East,82,0.0,0.0,79,0.00,,---,0.00,VWS V14.01,2013-08-05 12:27:00,
2013-08-05 07:32:00,71.5,64.3,29.94,East,83,0.0,0.0,78,0.00,,---,0.00,VWS V14.01,2013-08-05 12:32:00,
2013-08-05 07:37:00,72.1,64.1,29.94,ENE,78,0.0,0.0,76,0.00,,---,0.00,VWS V14.01,2013-08-05 12:37:00,
2013-08-05 07:42:00,72.2,64.2,29.94,East,84,0.0,0.0,76,0.00,,---,0.00,VWS V14.01,2013-08-05 12:42:00,
2013-08-05 07:47:00,72.0,64.4,29.94,ENE,66,0.0,0.0,77,0.00,,---,0.00,VWS V14.01,2013-08-05 12:47:00,
2013-08-05 07:52:00,72.3,64.3,29.94,ENE,67,0.0,0.0,76,0.00,,---,0.00,VWS V14.01,2013-08-05 12:52:00,
2013-08-05 07:57:00,72.8,64.8,29.94,ESE,110,0.0,0.0,76,0.00,,---,0.00,VWS V14.01,2013-08-05 12:57:00,
2013-08-05 08:02:00,72.6,64.2,29.94,ENE,74,0.0,0.0,75,0.00,,---,0.00,VWS V14.01,2013-08-05 13:02:00,
2013-08-05 08:08:00,72.5,64.1,29.94,East,96,0.0,0.0,75,0.00,,---,0.00,VWS V14.01,2013-08-05 13:08:00,
2013-08-05 08:13:00,72.6,64.2,29.94,ENE,68,0.0,0.0,75,0.00,,---,0.00,VWS V14.01,2013-08-05 13:13:00,
2013-08-05 08:18:00,73.1,63.9,29.94,East,93,0.0,0.0,73,0.00,,---,0.00,VWS V14.01,2013-08-05 13:18:00,
2013-08-05 08:23:00,73.0,64.2,29.94,East,82,0.0,0.0,74,0.00,,---,0.00,VWS V14.01,2013-08-05 13:23:00,
2013-08-05 08:28:00,73.1,64.3,29.94,East,83,0.0,0.0,74,0.00,,---,0.00,VWS V14.01,2013-08-05 13:28:00,
2013-08-05 08:34:00,73.1,64.3,29.93,East,92,0.0,0.0,74,0.00,,---,0.00,VWS V14.01,2013-08-05 13:34:00,
2013-08-05 08:39:00,72.9,64.1,29.93,South,173,0.0,0.0,74,0.00,,---,0.00,VWS V14.01,2013-08-05 13:39:00,
2013-08-05 08:44:00,72.8,64.0,29.93,ENE,67,0.0,0.0,74,0.00,,---,0.00,VWS V14.01,2013-08-05 13:44:00,
2013-08-05 08:49:00,73.1,64.7,29.93,SSE,157,0.0,0.0,75,0.00,,---,0.00,VWS V14.01,2013-08-05 13:49:00,
2013-08-05 08:53:00,73.2,64.4,29.93,SSE,157,0.0,0.0,74,0.00,,---,0.00,VWS V14.01,2013-08-05 13:53:00,
2013-08-05 08:59:00,73.3,64.1,29.93,SSE,159,0.0,0.0,73,0.00,,---,0.00,VWS V14.01,2013-08-05 13:59:00,
2013-08-05 09:04:00,73.8,64.6,29.93,South,182,0.0,0.0,73,0.00,,---,0.00,VWS V14.01,2013-08-05 14:04:00,
2013-08-05 09:09:00,74.2,64.6,29.93,East,89,0.0,0.0,72,0.00,,---,0.00,VWS V14.01,2013-08-05 14:09:00,
2013-08-05 09:14:00,74.4,64.8,29.93,East,94,0.0,0.0,72,0.00,,---,0.00,VWS V14.01,2013-08-05 14:14:00,
2013-08-05 09:19:00,74.3,63.9,29.93,SSE,164,0.0,0.0,70,0.00,,---,0.00,VWS V14.01,2013-08-05 14:19:00,
2013-08-05 09:24:00,74.3,64.3,29.93,SSE,164,0.0,0.0,71,0.00,,---,0.00,VWS V14.01,2013-08-05 14:24:00,
2013-08-05 09:29:00,74.3,64.7,29.93,South,169,0.0,0.0,72,0.00,,---,0.00,VWS V14.01,2013-08-05 14:29:00,
2013-08-05 09:34:00,74.7,65.9,29.92,South,169,0.0,0.0,74,0.00,,---,0.00,VWS V14.01,2013-08-05 14:34:00,
2013-08-05 09:39:00,75.1,65.5,29.92,East,97,0.0,0.0,72,0.00,,---,0.00,VWS V14.01,2013-08-05 14:39:00,
2013-08-05 09:44:00,75.1,65.1,29.92,ENE,72,0.0,0.0,71,0.00,,---,0.00,VWS V14.01,2013-08-05 14:44:00,
2013-08-05 09:49:00,75.0,64.6,29.93,SSE,157,0.0,0.0,70,0.00,,---,0.00,VWS V14.01,2013-08-05 14:49:00,
2013-08-05 09:54:00,75.1,65.1,29.93,SSE,167,0.0,0.0,71,0.00,,---,0.00,VWS V14.01,2013-08-05 14:54:00,
2013-08-05 10:00:00,75.2,65.6,29.93,SSE,168,0.0,0.0,72,0.00,,---,0.00,VWS V14.01,2013-08-05 15:00:00,
2013-08-05 10:05:00,75.7,65.6,29.93,SSE,148,0.0,0.0,71,0.00,,---,0.00,VWS V14.01,2013-08-05 15:05:00,
2013-08-05 10:10:00,76.1,65.2,29.93,SSE,152,0.0,0.0,69,0.00,,---,0.00,VWS V14.01,2013-08-05 15:10:00,
2013-08-05 10:14:00,76.1,66.0,29.93,East,81,0.0,0.0,71,0.00,,---,0.00,VWS V14.01,2013-08-05 15:14:00,
2013-08-05 10:20:00,76.4,66.3,29.93,SSE,148,0.0,0.0,71,0.00,,---,0.00,VWS V14.01,2013-08-05 15:20:00,
2013-08-05 10:25:00,76.9,66.0,29.93,ENE,63,0.0,0.0,69,0.00,,---,0.00,VWS V14.01,2013-08-05 15:25:00,
2013-08-05 10:30:00,77.4,67.3,29.93,ENE,62,0.0,0.0,71,0.00,,---,0.00,VWS V14.01,2013-08-05 15:30:00,
2013-08-05 10:35:00,77.5,65.7,29.93,South,182,0.0,0.0,67,0.00,,---,0.00,VWS V14.01,2013-08-05 15:35:00,
2013-08-05 10:40:00,77.7,66.3,29.93,ENE,78,0.0,0.0,68,0.00,,---,0.00,VWS V14.01,2013-08-05 15:40:00,
2013-08-05 10:45:00,77.5,65.7,29.93,SSW,192,0.0,0.0,67,0.00,,---,0.00,VWS V14.01,2013-08-05 15:45:00,
2013-08-05 10:50:00,77.4,66.0,29.92,SSE,160,0.0,0.0,68,0.00,,---,0.00,VWS V14.01,2013-08-05 15:50:00,
2013-08-05 10:55:00,77.3,66.8,29.92,SSE,163,0.0,0.0,70,0.00,,---,0.00,VWS V14.01,2013-08-05 15:55:00,
2013-08-05 11:01:00,77.2,67.1,29.92,South,178,0.0,0.0,71,0.00,,---,0.00,VWS V14.01,2013-08-05 16:01:00,
2013-08-05 11:06:00,77.3,66.8,29.92,South,170,0.0,0.0,70,0.00,,---,0.00,VWS V14.01,2013-08-05 16:06:00,
2013-08-05 11:11:00,77.3,65.1,29.92,South,173,0.0,0.0,66,0.00,,---,0.00,VWS V14.01,2013-08-05 16:11:00,
2013-08-05 11:15:00,77.1,65.7,29.92,South,173,0.0,0.0,68,0.00,,---,0.00,VWS V14.01,2013-08-05 16:15:00,
2013-08-05 11:21:00,76.9,66.0,29.92,South,175,0.0,0.0,69,0.00,,---,0.00,VWS V14.01,2013-08-05 16:21:00,
2013-08-05 11:25:00,76.5,65.6,29.92,South,173,0.0,0.0,69,0.00,,---,0.00,VWS V14.01,2013-08-05 16:25:00,
2013-08-05 11:30:00,76.3,66.2,29.92,South,172,0.0,0.0,71,0.00,,---,0.00,VWS V14.01,2013-08-05 16:30:00,
2013-08-05 11:36:00,76.1,65.6,29.92,SSE,166,0.0,0.0,70,0.00,,---,0.00,VWS V14.01,2013-08-05 16:36:00,
2013-08-05 11:40:00,75.9,65.8,29.92,SSE,167,0.0,0.0,71,0.00,,---,0.00,VWS V14.01,2013-08-05 16:40:00,
2013-08-05 11:46:00,75.7,65.6,29.92,South,173,0.0,0.0,71,0.00,,---,0.00,VWS V14.01,2013-08-05 16:46:00,
2013-08-05 11:51:00,75.5,65.4,29.92,South,172,0.0,0.0,71,0.00,,---,0.00,VWS V14.01,2013-08-05 16:51:00,
2013-08-05 11:56:00,75.7,66.4,29.92,South,172,0.0,0.0,73,0.00,,---,0.00,VWS V14.01,2013-08-05 16:56:00,
2013-08-05 12:01:00,76.0,65.5,29.92,South,171,0.0,0.0,70,0.00,,---,0.00,VWS V14.01,2013-08-05 17:01:00,
2013-08-05 12:07:00,76.3,66.6,29.92,South,171,0.0,0.0,72,0.00,,---,0.00,VWS V14.01,2013-08-05 17:07:00,
2013-08-05 12:11:00,76.5,66.0,29.92,South,171,0.0,0.0,70,0.00,,---,0.00,VWS V14.01,2013-08-05 17:11:00,
2013-08-05 12:17:00,76.5,65.6,29.93,South,172,0.0,0.0,69,0.00,,---,0.00,VWS V14.01,2013-08-05 17:17:00,
2013-08-05 12:22:00,76.5,66.4,29.93,South,172,0.0,0.0,71,0.00,,---,0.00,VWS V14.01,2013-08-05 17:22:00,
2013-08-05 12:27:00,76.4,66.3,29.93,South,173,0.0,0.0,71,0.00,,---,0.00,VWS V14.01,2013-08-05 17:27:00,
2013-08-05 12:32:00,76.2,66.1,29.93,South,172,0.0,0.0,71,0.00,,---,0.00,VWS V14.01,2013-08-05 17:32:00,
2013-08-05 12:37:00,76.1,66.0,29.93,South,173,0.0,0.0,71,0.00,,---,0.00,VWS V14.01,2013-08-05 17:37:00,
2013-08-05 12:43:00,76.2,66.9,29.93,South,172,0.0,0.0,73,0.00,,---,0.00,VWS V14.01,2013-08-05 17:43:00,
2013-08-05 12:48:00,76.3,67.0,29.93,South,172,0.0,0.0,73,0.00,,---,0.00,VWS V14.01,2013-08-05 17:48:00,
2013-08-05 12:53:00,76.0,66.7,29.93,South,171,0.0,0.0,73,0.00,,---,0.00,VWS V14.01,2013-08-05 17:53:00,
2013-08-05 12:58:00,75.4,67.3,29.93,South,171,0.0,0.0,76,0.00,,---,0.00,VWS V14.01,2013-08-05 17:58:00,
2013-08-05 13:03:00,74.7,66.6,29.92,South,172,0.0,0.0,76,0.00,,---,0.00,VWS V14.01,2013-08-05 18:03:00,
2013-08-05 13:08:00,74.0,66.7,29.92,South,172,0.0,0.0,78,0.00,,---,0.00,VWS V14.01,2013-08-05 18:08:00,
2013-08-05 13:13:00,73.6,67.1,29.92,South,171,0.0,0.0,80,0.00,,---,0.00,VWS V14.01,2013-08-05 18:13:00,
2013-08-05 13:18:00,73.2,66.7,29.92,South,172,0.0,0.0,80,0.00,,---,0.00,VWS V14.01,2013-08-05 18:18:00,
2013-08-05 13:23:00,72.6,65.7,29.92,SSE,167,0.0,0.0,79,0.00,,---,0.00,VWS V14.01,2013-08-05 18:23:00,
2013-08-05 13:28:00,72.3,65.4,29.92,SSE,163,0.0,0.0,79,0.00,,---,0.00,VWS V14.01,2013-08-05 18:28:00,
2013-08-05 13:33:00,71.9,65.0,29.91,SSE,163,0.0,0.0,79,0.00,,---,0.00,VWS V14.01,2013-08-05 18:33:00,
2013-08-05 13:38:00,71.6,65.1,29.91,South,175,0.0,0.0,80,0.00,,---,0.00,VWS V14.01,2013-08-05 18:38:00,
2013-08-05 13:43:00,71.3,64.8,29.91,South,179,0.0,0.0,80,0.00,,---,0.00,VWS V14.01,2013-08-05 18:43:00,
2013-08-05 13:49:00,70.8,64.7,29.92,SSE,155,0.0,0.0,81,0.00,,---,0.00,VWS V14.01,2013-08-05 18:49:00,
2013-08-05 13:53:00,70.3,64.2,29.92,SSE,159,0.0,0.0,81,0.00,,---,0.00,VWS V14.01,2013-08-05 18:53:00,
2013-08-05 13:59:00,69.7,64.0,29.92,SSE,159,0.0,0.0,82,0.00,,---,0.00,VWS V14.01,2013-08-05 18:59:00,
2013-08-05 14:04:00,69.6,64.9,29.92,SSE,158,0.0,0.0,85,0.00,,---,0.00,VWS V14.01,2013-08-05 19:04:00,
2013-08-05 14:09:00,69.5,64.8,29.92,SSE,159,0.0,0.0,85,0.00,,---,0.00,VWS V14.01,2013-08-05 19:09:00,
2013-08-05 14:14:00,69.3,64.6,29.92,SSE,159,0.0,0.0,85,0.00,,---,0.00,VWS V14.01,2013-08-05 19:14:00,
2013-08-05 14:19:00,69.4,65.0,29.91,SSE,159,0.0,0.0,86,0.00,,---,0.00,VWS V14.01,2013-08-05 19:19:00,
2013-08-05 14:24:00,69.5,65.5,29.91,SSE,159,0.0,0.0,87,0.00,,---,0.00,VWS V14.01,2013-08-05 19:24:00,
2013-08-05 14:29:00,69.6,65.6,29.91,SSE,160,0.0,0.0,87,0.01,,---,0.01,VWS V14.01,2013-08-05 19:29:00,
2013-08-05 14:34:00,69.6,65.6,29.91,SSE,159,0.0,0.0,87,0.01,,---,0.01,VWS V14.01,2013-08-05 19:34:00,
2013-08-05 14:39:00,69.5,65.5,29.91,SSE,159,0.0,0.0,87,0.01,,---,0.01,VWS V14.01,2013-08-05 19:39:00,
2013-08-05 14:44:00,69.6,65.9,29.91,SE,136,0.0,0.0,88,0.01,,---,0.01,VWS V14.01,2013-08-05 19:44:00,
2013-08-05 14:49:00,69.5,65.8,29.90,SE,136,0.0,0.0,88,0.01,,---,0.01,VWS V14.01,2013-08-05 19:49:00,
2013-08-05 14:54:00,69.2,65.5,29.90,SE,132,0.0,0.0,88,0.01,,---,0.01,VWS V14.01,2013-08-05 19:54:00,
2013-08-05 14:59:00,69.2,65.8,29.90,SE,132,0.0,0.0,89,0.01,,---,0.01,VWS V14.01,2013-08-05 19:59:00,
2013-08-05 15:04:00,69.2,66.2,29.90,SE,125,0.0,0.0,90,0.01,,---,0.01,VWS V14.01,2013-08-05 20:04:00,
2013-08-05 15:09:00,69.3,66.2,29.90,SE,127,0.0,0.0,90,0.02,,---,0.02,VWS V14.01,2013-08-05 20:09:00,
2013-08-05 15:15:00,69.4,66.7,29.90,SE,126,0.0,0.0,91,0.02,,---,0.02,VWS V14.01,2013-08-05 20:15:00,
2013-08-05 15:20:00,69.5,66.8,29.89,South,174,0.0,0.0,91,0.02,,---,0.02,VWS V14.01,2013-08-05 20:20:00,
2013-08-05 15:25:00,69.5,66.8,29.89,SSE,162,0.0,0.0,91,0.02,,---,0.02,VWS V14.01,2013-08-05 20:25:00,
2013-08-05 15:30:00,69.5,66.8,29.89,SSE,162,0.0,0.0,91,0.02,,---,0.02,VWS V14.01,2013-08-05 20:30:00,
2013-08-05 15:35:00,69.6,66.9,29.88,SSE,162,0.0,0.0,91,0.01,,---,0.02,VWS V14.01,2013-08-05 20:35:00,
2013-08-05 15:40:00,69.7,67.3,29.88,SSE,163,0.0,0.0,92,0.01,,---,0.02,VWS V14.01,2013-08-05 20:40:00,
2013-08-05 15:45:00,69.7,67.0,29.88,SSE,163,0.0,0.0,91,0.01,,---,0.02,VWS V14.01,2013-08-05 20:45:00,
2013-08-05 15:50:00,69.6,66.9,29.88,SSE,162,0.0,0.0,91,0.01,,---,0.02,VWS V14.01,2013-08-05 20:50:00,
2013-08-05 15:55:00,69.7,67.3,29.88,SSE,158,0.0,0.0,92,0.01,,---,0.02,VWS V14.01,2013-08-05 20:55:00,
2013-08-05 16:00:00,69.7,67.3,29.88,SSE,158,0.0,0.0,92,0.01,,---,0.02,VWS V14.01,2013-08-05 21:00:00,
2013-08-05 16:05:00,69.7,67.3,29.87,SSE,158,0.0,0.0,92,0.01,,---,0.02,VWS V14.01,2013-08-05 21:05:00,
2013-08-05 16:10:00,69.6,66.9,29.87,SSE,158,0.0,0.0,91,0.01,,---,0.02,VWS V14.01,2013-08-05 21:10:00,
2013-08-05 16:15:00,69.6,66.9,29.87,SSE,159,0.0,0.0,91,0.01,,---,0.02,VWS V14.01,2013-08-05 21:15:00,
2013-08-05 16:20:00,69.5,66.8,29.85,South,169,0.0,0.0,91,0.01,,---,0.02,VWS V14.01,2013-08-05 21:20:00,
2013-08-05 16:25:00,69.5,66.8,29.85,East,97,0.0,0.0,91,0.01,,---,0.02,VWS V14.01,2013-08-05 21:25:00,
2013-08-05 16:30:00,69.5,66.8,29.85,SE,128,0.0,0.0,91,0.01,,---,0.02,VWS V14.01,2013-08-05 21:30:00,
2013-08-05 16:36:00,69.6,66.9,29.85,ENE,77,0.0,0.0,91,0.00,,---,0.02,VWS V14.01,2013-08-05 21:36:00,
2013-08-05 16:41:00,69.5,66.4,29.85,East,84,0.0,0.0,90,0.00,,---,0.02,VWS V14.01,2013-08-05 21:41:00,
2013-08-05 16:46:00,69.4,66.3,29.85,ESE,113,0.0,0.0,90,0.00,,---,0.02,VWS V14.01,2013-08-05 21:46:00,
2013-08-05 16:51:00,69.2,65.8,29.84,NE,55,0.0,0.0,89,0.00,,---,0.02,VWS V14.01,2013-08-05 21:51:00,
2013-08-05 16:56:00,69.2,65.8,29.84,East,80,0.0,0.0,89,0.00,,---,0.02,VWS V14.01,2013-08-05 21:56:00,
2013-08-05 17:01:00,69.4,66.0,29.84,East,84,0.0,0.0,89,0.00,,---,0.02,VWS V14.01,2013-08-05 22:01:00,
2013-08-05 17:06:00,69.5,66.1,29.84,SSE,162,0.0,0.0,89,0.00,,---,0.02,VWS V14.01,2013-08-05 22:06:00,
2013-08-05 17:11:00,69.6,66.2,29.84,SSE,163,0.0,0.0,89,0.00,,---,0.02,VWS V14.01,2013-08-05 22:11:00,
2013-08-05 17:16:00,70.0,66.9,29.84,SE,144,0.0,0.0,90,0.00,,---,0.02,VWS V14.01,2013-08-05 22:16:00,
2013-08-05 17:21:00,70.2,66.5,29.84,ESE,109,0.0,0.0,88,0.00,,---,0.02,VWS V14.01,2013-08-05 22:21:00,
2013-08-05 17:26:00,70.4,66.7,29.84,SSE,165,0.0,0.0,88,0.00,,---,0.02,VWS V14.01,2013-08-05 22:26:00,
2013-08-05 17:31:00,70.2,66.2,29.84,South,173,0.0,0.0,87,0.00,,---,0.02,VWS V14.01,2013-08-05 22:31:00,
2013-08-05 17:37:00,70.2,66.5,29.84,SSE,150,0.0,0.0,88,0.00,,---,0.02,VWS V14.01,2013-08-05 22:37:00,
2013-08-05 17:42:00,70.4,66.7,29.84,SE,138,0.0,0.0,88,0.00,,---,0.02,VWS V14.01,2013-08-05 22:42:00,
2013-08-05 17:47:00,70.6,66.9,29.83,SE,139,0.0,0.0,88,0.00,,---,0.02,VWS V14.01,2013-08-05 22:47:00,
2013-08-05 17:52:00,71.0,67.3,29.83,ESE,105,0.0,0.0,88,0.00,,---,0.02,VWS V14.01,2013-08-05 22:52:00,
2013-08-05 17:57:00,71.3,67.2,29.83,SSE,153,0.0,0.0,87,0.00,,---,0.02,VWS V14.01,2013-08-05 22:57:00,
2013-08-05 18:02:00,71.4,67.0,29.82,SSE,167,0.0,0.0,86,0.00,,---,0.02,VWS V14.01,2013-08-05 23:02:00,
2013-08-05 18:07:00,71.3,66.9,29.82,SSE,159,0.0,0.0,86,0.00,,---,0.02,VWS V14.01,2013-08-05 23:07:00,
2013-08-05 18:12:00,71.5,67.1,29.82,SE,128,0.0,0.0,86,0.00,,---,0.02,VWS V14.01,2013-08-05 23:12:00,
2013-08-05 18:18:00,71.9,67.5,29.82,NE,48,0.0,0.0,86,0.00,,---,0.02,VWS V14.01,2013-08-05 23:18:00,
2013-08-05 18:23:00,72.1,67.0,29.82,ESE,109,0.0,0.0,84,0.00,,---,0.02,VWS V14.01,2013-08-05 23:23:00,
2013-08-05 18:28:00,72.3,67.2,29.82,South,191,0.0,0.0,84,0.00,,---,0.02,VWS V14.01,2013-08-05 23:28:00,
2013-08-05 18:33:00,72.5,67.4,29.81,SE,142,0.0,0.0,84,0.00,,---,0.02,VWS V14.01,2013-08-05 23:33:00,
2013-08-05 18:38:00,72.6,67.5,29.81,SE,146,0.0,0.0,84,0.00,,---,0.02,VWS V14.01,2013-08-05 23:38:00,
2013-08-05 18:43:00,72.4,66.9,29.81,SSE,167,0.0,0.0,83,0.00,,---,0.02,VWS V14.01,2013-08-05 23:43:00,
2013-08-05 18:48:00,72.1,67.0,29.81,SSE,168,0.0,0.0,84,0.00,,---,0.02,VWS V14.01,2013-08-05 23:48:00,
2013-08-05 18:53:00,71.8,66.7,29.81,South,177,0.0,0.0,84,0.00,,---,0.02,VWS V14.01,2013-08-05 23:53:00,
2013-08-05 18:58:00,71.4,66.3,29.81,South,177,0.0,0.0,84,0.00,,---,0.02,VWS V14.01,2013-08-05 23:58:00,
2013-08-05 19:03:00,71.2,66.1,29.81,SSE,167,0.0,0.0,84,0.00,,---,0.02,VWS V14.01,2013-08-06 00:03:00,
2013-08-05 19:08:00,71.2,66.5,29.81,SSE,167,0.0,0.0,85,0.00,,---,0.02,VWS V14.01,2013-08-06 00:08:00,
2013-08-05 19:13:00,71.0,66.3,29.81,SSE,165,0.0,0.0,85,0.00,,---,0.02,VWS V14.01,2013-08-06 00:13:00,
2013-08-05 19:18:00,70.9,66.2,29.80,SSE,165,0.0,0.0,85,0.00,,---,0.02,VWS V14.01,2013-08-06 00:18:00,
2013-08-05 19:23:00,70.8,66.4,29.80,East,98,0.0,0.0,86,0.00,,---,0.02,VWS V14.01,2013-08-06 00:23:00,
2013-08-05 19:28:00,70.6,66.2,29.80,SSE,152,0.0,0.0,86,0.00,,---,0.02,VWS V14.01,2013-08-06 00:28:00,
2013-08-05 19:33:00,70.5,66.1,29.80,SSE,152,0.0,0.0,86,0.00,,---,0.02,VWS V14.01,2013-08-06 00:33:00,
2013-08-05 19:38:00,70.4,66.3,29.80,South,169,0.0,0.0,87,0.00,,---,0.02,VWS V14.01,2013-08-06 00:38:00,
2013-08-05 19:43:00,70.3,66.2,29.80,South,177,0.0,0.0,87,0.00,,---,0.02,VWS V14.01,2013-08-06 00:43:00,
2013-08-05 19:48:00,70.2,66.2,29.81,South,177,0.0,0.0,87,0.00,,---,0.02,VWS V14.01,2013-08-06 00:48:00,
2013-08-05 19:53:00,70.2,66.2,29.81,South,169,0.0,0.0,87,0.00,,---,0.02,VWS V14.01,2013-08-06 00:53:00,
2013-08-05 19:58:00,70.1,66.1,29.81,South,171,0.0,0.0,87,0.00,,---,0.02,VWS V14.01,2013-08-06 00:58:00,
2013-08-05 20:03:00,70.2,66.2,29.81,South,171,0.0,0.0,87,0.00,,---,0.02,VWS V14.01,2013-08-06 01:03:00,
2013-08-05 20:09:00,70.1,66.1,29.81,SSE,167,0.0,0.0,87,0.00,,---,0.02,VWS V14.01,2013-08-06 01:09:00,
2013-08-05 20:14:00,70.1,66.4,29.81,SSE,166,0.0,0.0,88,0.00,,---,0.02,VWS V14.01,2013-08-06 01:14:00,
2013-08-05 20:19:00,70.0,66.3,29.81,SSE,167,0.0,0.0,88,0.00,,---,0.02,VWS V14.01,2013-08-06 01:19:00,
2013-08-05 20:24:00,70.0,66.3,29.81,SSE,166,0.0,0.0,88,0.00,,---,0.02,VWS V14.01,2013-08-06 01:24:00,
2013-08-05 20:29:00,70.0,66.3,29.81,SSE,166,0.0,0.0,88,0.00,,---,0.02,VWS V14.01,2013-08-06 01:29:00,
2013-08-05 20:34:00,70.0,66.3,29.82,SSE,167,0.0,0.0,88,0.00,,---,0.02,VWS V14.01,2013-08-06 01:34:00,
2013-08-05 20:39:00,70.0,66.3,29.82,South,185,0.0,0.0,88,0.00,,---,0.02,VWS V14.01,2013-08-06 01:39:00,
2013-08-05 20:44:00,70.0,66.3,29.82,South,169,0.0,0.0,88,0.00,,---,0.02,VWS V14.01,2013-08-06 01:44:00,
2013-08-05 20:49:00,70.0,66.3,29.82,SSE,165,0.0,0.0,88,0.00,,---,0.02,VWS V14.01,2013-08-06 01:49:00,
2013-08-05 20:54:00,70.1,66.4,29.82,SSE,168,0.0,0.0,88,0.00,,---,0.02,VWS V14.01,2013-08-06 01:54:00,
2013-08-05 20:59:00,70.1,66.1,29.82,SSE,168,0.0,0.0,87,0.00,,---,0.02,VWS V14.01,2013-08-06 01:59:00,
2013-08-05 21:04:00,70.1,66.4,29.82,South,169,0.0,0.0,88,0.00,,---,0.02,VWS V14.01,2013-08-06 02:04:00,
2013-08-05 21:09:00,70.1,66.4,29.82,South,169,0.0,0.0,88,0.00,,---,0.02,VWS V14.01,2013-08-06 02:09:00,
2013-08-05 21:14:00,70.1,66.4,29.82,South,169,0.0,0.0,88,0.00,,---,0.02,VWS V14.01,2013-08-06 02:14:00,
2013-08-05 21:19:00,70.1,66.4,29.82,SSE,161,0.0,0.0,88,0.00,,---,0.02,VWS V14.01,2013-08-06 02:19:00,
2013-08-05 21:24:00,70.2,66.5,29.82,South,183,0.0,0.0,88,0.00,,---,0.02,VWS V14.01,2013-08-06 02:24:00,
2013-08-05 21:30:00,70.2,66.5,29.82,SSE,166,0.0,0.0,88,0.00,,---,0.02,VWS V14.01,2013-08-06 02:30:00,
2013-08-05 21:35:00,70.2,66.5,29.82,South,174,0.0,0.0,88,0.00,,---,0.02,VWS V14.01,2013-08-06 02:35:00,
2013-08-05 21:40:00,70.3,66.6,29.82,SSW,197,0.0,0.0,88,0.00,,---,0.02,VWS V14.01,2013-08-06 02:40:00,
2013-08-05 21:45:00,70.3,66.6,29.82,SSE,168,0.0,0.0,88,0.00,,---,0.02,VWS V14.01,2013-08-06 02:45:00,
2013-08-05 21:50:00,70.2,66.5,29.81,SSE,155,0.0,0.0,88,0.00,,---,0.02,VWS V14.01,2013-08-06 02:50:00,
2013-08-05 21:55:00,70.2,66.5,29.81,SSE,166,0.0,0.0,88,0.00,,---,0.02,VWS V14.01,2013-08-06 02:55:00,
2013-08-05 22:00:00,70.2,66.8,29.81,SSE,155,0.0,0.0,89,0.00,,---,0.02,VWS V14.01,2013-08-06 03:00:00,
2013-08-05 22:05:00,70.2,66.8,29.82,SSE,155,0.0,0.0,89,0.00,,---,0.02,VWS V14.01,2013-08-06 03:05:00,
2013-08-05 22:10:00,70.2,66.8,29.82,SSE,156,0.0,0.0,89,0.00,,---,0.02,VWS V14.01,2013-08-06 03:10:00,
2013-08-05 22:15:00,70.3,66.9,29.82,SSE,155,0.0,0.0,89,0.00,,---,0.02,VWS V14.01,2013-08-06 03:15:00,
2013-08-05 22:20:00,70.3,67.2,29.82,SSE,155,0.0,0.0,90,0.00,,---,0.02,VWS V14.01,2013-08-06 03:20:00,
2013-08-05 22:25:00,70.4,67.3,29.82,SSE,155,0.0,0.0,90,0.00,,---,0.02,VWS V14.01,2013-08-06 03:25:00,
2013-08-05 22:30:00,70.6,67.5,29.82,SSE,168,0.0,0.0,90,0.00,,---,0.02,VWS V14.01,2013-08-06 03:30:00,
2013-08-05 22:35:00,70.7,67.3,29.81,South,170,0.0,0.0,89,0.00,,---,0.02,VWS V14.01,2013-08-06 03:35:00,
2013-08-05 22:41:00,70.7,67.3,29.81,South,173,0.0,0.0,89,0.00,,---,0.02,VWS V14.01,2013-08-06 03:41:00,
2013-08-05 22:46:00,70.8,67.4,29.81,South,173,0.0,0.0,89,0.00,,---,0.02,VWS V14.01,2013-08-06 03:46:00,
2013-08-05 22:51:00,70.8,67.4,29.81,SSE,155,0.0,0.0,89,0.00,,---,0.02,VWS V14.01,2013-08-06 03:51:00,
2013-08-05 22:56:00,70.7,67.3,29.81,SSE,162,0.0,0.0,89,0.00,,---,0.02,VWS V14.01,2013-08-06 03:56:00,
2013-08-05 23:01:00,70.7,67.3,29.81,SSE,162,0.0,0.0,89,0.00,,---,0.02,VWS V14.01,2013-08-06 04:01:00,
2013-08-05 23:06:00,70.6,67.5,29.81,SSE,162,0.0,0.0,90,0.00,,---,0.02,VWS V14.01,2013-08-06 04:06:00,
2013-08-05 23:11:00,70.6,67.5,29.81,SSE,163,0.0,0.0,90,0.00,,---,0.02,VWS V14.01,2013-08-06 04:11:00,
2013-08-05 23:16:00,70.5,67.4,29.80,SSE,162,0.0,0.0,90,0.00,,---,0.02,VWS V14.01,2013-08-06 04:16:00,
2013-08-05 23:21:00,70.5,67.4,29.80,SSE,162,0.0,0.0,90,0.00,,---,0.02,VWS V14.01,2013-08-06 04:21:00,
2013-08-05 23:26:00,70.5,67.4,29.80,SSE,162,0.0,0.0,90,0.00,,---,0.02,VWS V14.01,2013-08-06 04:26:00,
2013-08-05 23:31:00,70.5,67.4,29.80,SSE,162,0.0,0.0,90,0.00,,---,0.02,VWS V14.01,2013-08-06 04:31:00,
2013-08-05 23:36:00,70.4,67.3,29.80,SSE,163,0.0,0.0,90,0.00,,---,0.02,VWS V14.01,2013-08-06 04:36:00,
2013-08-05 23:41:00,70.4,67.3,29.80,SSE,162,0.0,0.0,90,0.00,,---,0.02,VWS V14.01,2013-08-06 04:41:00,
2013-08-05 23:46:00,70.4,67.3,29.80,SSE,163,0.0,0.0,90,0.00,,---,0.02,VWS V14.01,2013-08-06 04:46:00,
2013-08-05 23:51:00,70.4,67.7,29.80,SSE,163,0.0,0.0,91,0.00,,---,0.02,VWS V14.01,2013-08-06 04:51:00,
2013-08-05 23:56:00,70.4,67.7,29.80,SSE,162,0.0,0.0,91,0.00,,---,0.02,VWS V14.01,2013-08-06 04:56:00,